Regional Weather Roundup
Issued by NWS

Home | Current Version | Previous Version | Text Only | Print | Product List | Glossary On
Versions: 1 2 3 4 5 6 7 8 9 10 11 12 13 14 15 16 17 18 19 20 21 22 23 24 25 26 27 28 29 30 31 32 33 34 35 36 37 38 39 40 41 42 43 44 45 46 47 48 49 50
000
ASUS43 KFSD 281610
RWRSD

WEATHER ROUNDUP FOR SOUTH DAKOTA
NATIONAL WEATHER SERVICE SIOUX FALLS SD
1100 AM CDT WED JUN 28 2017

NOTE: "FAIR" INDICATES FEW OR NO CLOUDS BELOW 12,000 FEET WITH NO
SIGNIFICANT WEATHER AND/OR OBSTRUCTIONS TO VISIBILITY.


SDZ001>005-009-010-012>017-281700-
NORTHWEST AND NORTH CENTRAL SOUTH DAKOTA

CITY           SKY/WX    TMP DP  RH WIND       PRES   REMARKS
BUFFALO          N/A     74  40  29 NW6       29.72F
FAITH            N/A     75  45  34 NW15G24   29.73S
MOBRIDGE       MOSUNNY   77  54  44 N17G23    29.61F
$$

SDZ012>016-024>037-041>051-057-063-072>074-281700-
SOUTHWEST AND SOUTH CENTRAL SOUTH DAKOTA

CITY           SKY/WX    TMP DP  RH WIND       PRES   REMARKS
RAPID CTY ARPT SUNNY     73  53  49 NW15G23   29.80S
PIERRE         SUNNY     74  58  57 NW18      29.66R
CUSTER         SUNNY     69  38  32 VRB5      29.90F
PHILIP         MOSUNNY   74  59  59 NW13      29.73S
PINE RIDGE     SUNNY     73  56  54 NW7       29.83F
SPEARFISH      FAIR      68  54  60 NW9       29.85S
WINNER         FAIR      80  58  46 NW16G23   29.69F
$$

SDZ004>011-016>023-039-040-281700-
NORTHEAST SOUTH DAKOTA

CITY           SKY/WX    TMP DP  RH WIND       PRES   REMARKS
ABERDEEN       CLOUDY    73  62  68 NW10      29.57R
WATERTOWN      CLOUDY    69  60  73 W15G24    29.55R
BROOKINGS      CLOUDY    74  64  71 W15       29.58F
SISSETON         N/A     71  63  75 W28G33    29.46R
$$

SDZ017-020-022-023-036>040-048>070-281700-
SOUTHEAST SOUTH DAKOTA

CITY           SKY/WX    TMP DP  RH WIND       PRES   REMARKS
SIOUX FALLS    CLOUDY    74  66  76 SW9       29.61F
HURON          MOSUNNY   76  63  64 NW16      29.58F
CHAMBERLAIN    SUNNY     78  62  56 NW16      29.66S
MITCHELL       PTSUNNY   78  62  57 NW13      29.61S
YANKTON        SUNNY     76  62  62 W8        29.64F
$$

ABBREVIATIONS USED IN REMARKS
   TC - TEMPERATURE IN CELSIUS
  WCI - WIND CHILL INDEX
   HX - HEAT INDEX
  VSB - VISIBILITY




USA.gov is the U.S. government's official web portal to all federal, state and local government web resources and services.